全球星 M038星 (GLOBALSTAR M038)

导读

GLOBALSTAR M038是美国全球星(GlobalStar)系统第一代低轨通信卫星,于1999年2月9日发射。它属于全球星第一代星座,基于劳拉公司LS-400平台建造,发射质量约450千克,运行在倾角52°、高度约1414千米的近圆轨道,设计寿命7.5年。 作为全球移动通信网络的空间节点,该卫星配备透明转发器,通过16个点波束为覆盖区提供数字语音、数据、传真等移动通信服务,支持与地面蜂窝网络漫游兼容,支撑全球星系统实现南北纬70°以内区域的卫星移动通信覆盖。

Basic Information
目录编号:
25624
目录名称:
GLOBALSTAR M038
国际标识:
1999-004D
轨道中心:
EARTH
卫星名称:
全球星 M038星
卫星全名:
全球星 M038星 (GLOBALSTAR M038)
卫星状态:
在轨 (已飞行10031 天)
发射日期:
1999-02-09 UTC
国别 :
(GLOB)
星等 :
--
Orbit Information
数据来源 国际轨道数据 AOE轨道数据
星历时间 2026-07-28T09:59:44+0800
12小时前
查看轨道信息
2026-07-22T10:00:00+0800
6天前
查看轨道信息
半长轴 7916.49km 7916.484km
偏心率 0.0002116 0.0002045
轨道倾角 52.000° 52.000°
近地点辐角 159.744° 143.083°
升交点赤经 342.614° 359.893°
平近点角 12.196° 34.115°
近地点 1536.677km 1536.728km
远地点 1540.029km 1539.966km
周期 116.831分钟 116.831分钟
每日圈数 12.325478 12.325492
Detailed Information
固有亮度:
5
最大亮度:
7.9
平衡模式:
三轴稳定
覆盖范围:
全球
运营商:
全球星公司
运营商所在国:
美国
使用方式:
暂无
Satellite Introduction
全球星星座由48颗卫星加8颗备份星组成。这些卫星分布在8个倾角为52度的圆形轨道平面上,每个轨道平面6颗卫星,另有1 颗备用星。轨道高度约为1414km,传输时延和处理时延小于300ms,整个系统的覆盖区为南北纬70度以内的地区。该卫星仍在工作。
2D Orbit Map
3D Orbit Map
Orbit Altitude Analysis Chart
Orbit Inclination Analysis Chart
Orbit Comprehensive Analysis Chart
View Comprehensive Chart